Погода в Демурино

Украина / Днепропетровская область     48˚10′47″N   36˚28′15″E
темп.,
°C
ветер,
м/с
пор.,
м/с
влажн.,
%
обл.,
%
осадки,
мм/ч
давл.,
гПа
погр.,
м
18 января, пн
пн1823:00−11˚с4695100 1.6 1014328
02:00−12˚с4695100 3.4 1014301
05:00−13˚ссз3496100 0.6 1014129
08:00−14˚сз239791 0.9 101630
11:00−11˚св239178 0.1 1017264
14:00−10˚з128987 0.1 1016359
17:00−11˚зсз2396100 0.4 1018118
20:00−12˚з2296100 0.9 101836
19 января, вт
вт1923:00−14˚зсз3396100 0.1 101866
02:00−16˚з2395100 0.1 101925
05:00−18˚з339732 0.0 101835
08:00−19˚зсз339845 0.0 102068
11:00−15˚з239273 0.0 1020207
14:00−13˚з469278 0.0 1020372
17:00−16˚з349583 0.0 102138
20:00−18˚зсз229644 0.0 102220
20 января, ср
ср2023:00−18˚з229643 0.0 102320
02:00−18˚юз229831 0.0 102420
05:00−19˚юз229829 0.0 102420
08:00−18˚ююз229664 0.0 102521
11:00−14˚юз2290100 0.0 1025212
14:00−12˚юз128886 0.0 1025255
17:00−16˚ююв229321 0.0 102620
20:00−17˚юв239211 0.0 102721
21 января, чт
чт2123:00−17˚ююв34890 0.0 102831
02:00−16˚юв34900 0.0 102838
05:00−15˚юв44950 0.0 102766
08:00−13˚юв579618 0.0 1028135
11:00−8˚ююв699464 0.0 1028248
14:00−6˚ююв599578 0.0 1027318
17:00−8˚ююв499793 0.0 1027168
20:00−6˚ююв5109690 0.0 1027200
22 января, пт
пт2223:00−5˚ю479781 0.0 1025200
02:00−1˚ю499790 0.0 1025232
05:00+1˚ююз51198100 0.0 1023312
08:00+1˚ююз5129898 0.0 1024310
11:00+2˚ююз512100100 0.0 1023390
14:00+2˚ю410100100 0.0 1022232
17:00+1˚ю5998100 0.0 1022272
20:00+1˚ю5119399 0.0 1021268